Poughkeepsie, NY

7:20 PM EDT on May 26, 2017 (GMT -0400)
Dutchess County

Weather History for KPOU - August, 2013

Change the Weather History Date:

Monday, August 26, 2013

  Actual Average Record
Temperature  
Mean Temperature 71 °F 70 °F  
Max Temperature 78 °F 81 °F 92 °F (1949)
Min Temperature 64 °F 58 °F 43 °F (1963)
Degree Days  
Heating Degree Days 0 1  
Month to date heating degree days 3 4  
Since 1 June heating degree days 34 58  
Since 1 July heating degree days 3 9  
Cooling Degree Days 6 5  
Month to date cooling degree days 116 178  
Year to date cooling degree days 706 581  
Since 1 June cooling degree days 653 545  
Growing Degree Days 20 (Base 50)    
Moisture  
Dew Point 64 °F    
Average Humidity 79    
Maximum Humidity 97    
Minimum Humidity 61    
Precipitation  
Precipitation 0.00 in 0.12 in 1.19 in (1976)
Month to date precipitation 5.87 3.63  
Year to date precipitation 29.48 30.21  
Sea Level Pressure  
Sea Level Pressure 30.03 in    
Wind  
Wind Speed 3 mph (SSW)    
Max Wind Speed 10 mph    
Max Gust Speed 14 mph    
Visibility 8 miles    
Events Rain    
T = Trace of Precipitation, MM = Missing Value Source: NWS Daily Summary

Daily Weather History Graph

Daily Weather History Graph

Search for Another Location

Airport or City:

Trip Planner

Search our weather history database for the weather conditions in past years. The results will help you decide how hot, cold, wet, or windy it might be!

Date:

Astronomy

Aug. 26, 2013 Rise Set
Actual Time 6:15 AM EDT 7:38 PM EDT
Civil Twilight 5:46 AM EDT 8:06 PM EDT
Nautical Twilight 5:11 AM EDT 8:41 PM EDT
Astronomical Twilight 4:35 AM EDT 9:18 PM EDT
Moon 10:41 PM EDT 12:20 PM EDT
Length of Visible Light 14h 20m
Length of Day
13h 22m
Waning Gibbous, 67% of the Moon is Illuminated
Aug 26
Waning Gibbous
Aug 28
Last Quarter
Sep 5
New
Sep 12
First Quarter
Sep 19
Full

Hourly Weather History & Observations

Time (EDT) Temp. Dew Point Humidity Pressure Visibility Wind Dir Wind Speed Gust Speed Precip Events Conditions
12:53 AM 64.0 °F 59.0 °F 84% 30.19 in 10.0 mi Calm Calm - N/A   Clear
1:53 AM 66.0 °F 59.0 °F 78% 30.20 in 10.0 mi Calm Calm - N/A   Mostly Cloudy
2:53 AM 69.1 °F 57.0 °F 65% 30.16 in 10.0 mi Variable 3.5 mph - N/A   Scattered Clouds
3:53 AM 70.0 °F 55.9 °F 61% 30.14 in 10.0 mi SW 4.6 mph - N/A   Scattered Clouds
4:53 AM 69.1 °F 55.9 °F 63% 30.15 in 10.0 mi SW 4.6 mph - 0.00 in   Mostly Cloudy
5:53 AM 66.9 °F 57.0 °F 70% 30.14 in 10.0 mi South 3.5 mph - 0.00 in   Overcast
6:53 AM 66.9 °F 55.9 °F 68% 30.14 in 10.0 mi Calm Calm - 0.00 in   Partly Cloudy
7:53 AM 66.9 °F 57.9 °F 73% 30.12 in 10.0 mi SE 3.5 mph - N/A   Mostly Cloudy
8:53 AM 66.9 °F 57.9 °F 73% 30.11 in 10.0 mi South 4.6 mph - 0.00 in Rain Light Rain
9:53 AM 70.0 °F 57.9 °F 65% 30.09 in 10.0 mi SW 5.8 mph - 0.00 in   Overcast
10:53 AM 71.1 °F 60.1 °F 68% 30.09 in 10.0 mi SSW 4.6 mph - N/A   Mostly Cloudy
11:53 AM 70.0 °F 63.0 °F 78% 30.06 in 10.0 mi Calm Calm - 0.00 in   Overcast
12:53 PM 71.1 °F 64.0 °F 78% 30.04 in 8.0 mi SSW 3.5 mph - 0.00 in Rain Light Rain
1:53 PM 70.0 °F 64.9 °F 84% 30.01 in 10.0 mi SSW 3.5 mph - 0.00 in Rain Light Rain
2:53 PM 75.0 °F 66.0 °F 73% 29.98 in 10.0 mi Calm Calm - 0.00 in   Partly Cloudy
3:53 PM 77.0 °F 66.0 °F 69% 29.96 in 10.0 mi South 3.5 mph - 0.00 in   Mostly Cloudy
4:53 PM 73.9 °F 68.0 °F 82% 29.95 in 6.0 mi Calm Calm - 0.00 in Rain Light Rain
5:05 PM 73.4 °F 69.8 °F 88% 29.96 in 1.8 mi Calm Calm - 0.00 in Rain Heavy Rain
5:17 PM 73.4 °F 69.8 °F 88% 29.96 in 4.0 mi South 3.5 mph - 0.00 in Rain Light Rain
5:53 PM 73.9 °F 70.0 °F 87% 29.94 in 4.0 mi Calm Calm - 0.00 in Rain Light Rain
6:53 PM 73.0 °F 70.0 °F 90% 29.93 in 7.0 mi Calm Calm - 0.00 in   Mostly Cloudy
7:53 PM 72.0 °F 70.0 °F 93% 29.92 in 6.0 mi Calm Calm - N/A   Mostly Cloudy
8:53 PM 71.1 °F 70.0 °F 96% 29.93 in 2.5 mi South 3.5 mph - 0.00 in Rain Rain
9:02 PM 71.6 °F 69.8 °F 94% 29.94 in 5.0 mi SW 5.8 mph - 0.00 in Rain Light Rain
9:53 PM 71.1 °F 69.1 °F 93% 29.93 in 7.0 mi SW 5.8 mph - N/A Rain Light Rain
10:53 PM 70.0 °F 68.0 °F 93% 29.91 in 8.0 mi Calm Calm - N/A Rain Light Rain
11:36 PM 69.8 °F 68.0 °F 94% 29.92 in 1.8 mi Calm Calm - N/A Rain Rain
11:53 PM 69.1 °F 68.0 °F 96% 29.89 in 2.0 mi SSE 4.6 mph - N/A Rain Rain